www.pogodaiklimat.ru

Погода и климат >> Архив погоды >> Саудовская Аравия >> Рафха


ПОГОДА в Рафхе

  • Прогноз погоды в Рафхе
  • Монитор погоды в Рафхе

АРХИВ ПОГОДЫ в Рафхе

Время (UTC), дата Ветер
(напр.,м/с)
 
Видим.   Явления Облачность Т
(С)
Тd
(С)
f
(%)
Тe
(С)
Тes
(С)
Комфортность P
(гПа)
Po
(гПа)
Тmin
(С)
Tmax
(С)
R
(мм)
R24
(мм)
S
(см)
21 8.02 Ю 7 10 км 8/6 1200 м
[Sc Ac As]
+14.3 +11.0 81 +12 +12 1014.0 962.5
00 9.02 Ю 3 10 км 8/6 1200 м
[Sc Ac As]
+15.5 +11.0 75 +15 +15 1011.9 961.5 10
03 9.02 штиль 0 10 км 8/0
[Ac und]
+20.0 +12.0 60 +21 +21 комфорт 1012.3 961.5
06 9.02 СЗ 5 10 км 8/0
[Ac As]
+18.4 +12.0 66 +19 +20 1014.3 963.3 +14.0
09 9.02 С 7 10 км ясно +19.9 +8.0 46 +20 +23 1014.4 963.4
12 9.02 С 7 10 км ясно +21.7 +3.0 29 +22 +23 комфорт 1013.3 962.6
15 9.02 С 4 10 км ясно +19.2 +5.0 39 +20 +20 1015.0 964.4
18 9.02 С 2 10 км ясно +17.5 +8.0 54 +18 +18 1016.6 965.7 +21.7
21 9.02 СВ 1 10 км ясно +17.6 +7.0 50 +19 +19 1017.3 966.5
00 10.02 Ю 1 10 км ясно +15.6 +6.0 53 +16 +16 1016.3 965.5
03 10.02 штиль 0 10 км ясно +12.9 +7.0 67 +13 +13 1017.0 965.7
06 10.02 СЗ 1 10 км ясно +19.8 +8.0 46 +22 +27 комфорт 1017.4 966.5 +12.5
09 10.02 В 3 10 км ясно +24.8 +5.0 28 +24 +34 комфорт 1015.7 965.4
12 10.02 С 1 10 км 4/0
[Ac trans]
+26.3 +2.0 21 +25 +30 комфорт 1014.0 963.7
15 10.02 ЮВ 1 10 км 4/0
[Ac trans]
+23.2 +3.0 27 +23 +23 комфорт 1014.3 963.5
18 10.02 ЮВ 3 10 км 4/0
[Ac trans]
+16.6 +6.0 50 +16 +16 1015.4 964.6 +27.0
21 10.02 ЮВ 3 10 км 4/0
[Ac trans]
+14.6 +7.0 60 +14 +14 1015.4 964.8
00 11.02 Ю 1 10 км 4/0
[Ac trans]
+18.1 +8.0 52 +19 +19 1014.1 964.0
03 11.02 С 1 10 км 6/5 1200 м
[Cu med, cong Ac trans]
+16.0 +8.0 59 +17 +17 1014.6 964.0
06 11.02 Ю 1 10 км 5/4 1200 м
[Cu med, cong Ac trans]
+18.6 +8.0 50 +20 +23 1016.5 965.5 +14.3
09 11.02 СЗ 4 10 км ясно +22.5 +5.0 32 +23 +31 комфорт 1015.6 964.8
12 11.02 В 2 10 км C/5 1200 м
[Cu med, cong Ac As]
+21.0 +1.0 26 +22 +26 комфорт 1014.0 963.5
15 11.02 СЗ 7 10 км 6/5 1200 м
[Cu med, cong Ac trans]
+17.6 +1.0 33 +17 +17 1016.1 965.0
18 11.02 СЗ 3 10 км 4/0
[Ac trans]
+16.6 +4.0 43 +17 +17 1018.1 967.0 +23.2
21 11.02 СЗ 3 10 км 4/0
[Ac trans]
+14.4 +5.0 53 +14 +14 1018.6 967.6
00 12.02 СЗ 2 10 км 4/0
[Ac trans]
+11.9 +5.0 63 +11 +11 1019.3 968.0
03 12.02 З 2 10 км 4/0
[Ac trans]
+12.0 +4.0 58 +12 +12 1019.2 967.6
06 12.02 СЗ 5 10 км ясно +13.1 +5.0 58 +11 +14 1021.5 969.8 +11.1
09 12.02 СЗ 6 10 км 5/4 1200 м
[Cu hum Ac trans]
+17.1 +3.0 39 +16 +19 1021.4 969.8
12 12.02 СЗ 7 10 км ясно +18.6 +1.0 31 +18 +20 1020.1 968.5
15 12.02 С 6 10 км ясно +16.4 +2.0 38 +15 +15 1021.0 969.2
18 12.02 СЗ 1 10 км ясно +16.1 +4.0 44 +17 +17 1022.9 971.1 +19.0
21 12.02 штиль 0 10 км ясно +15.0 +3.0 44 +15 +15 1022.9 971.7
00 13.02 штиль 0 10 км ясно +11.4 +2.0 52 +11 +11 1023.0 971.2
03 13.02 ЮВ 1 10 км ясно +10.8 +2.0 55 +11 +11 1023.2 971.4
06 13.02 ЮВ 1 10 км 4/0
[Ci sp]
+14.7 +5.0 52 +15 +21 1023.7 967.0 +10.5
09 13.02 ЮВ 5 10 км 5/0
[Ci sp]
+17.4 0.0 31 +17 +23 1022.0 970.6
12 13.02 ЮВ 4 10 км ясно +20.2 -1.0 24 +20 +24 1020.2 968.7
15 13.02 ЮВ 6 10 км 6/3 1200 м
[Cu med, cong Ac trans]
+17.2 0.0 31 +16 +16 1019.9 968.1
18 13.02 ЮВ 7 10 км 8/6 1200 м
[Sc Ac As]
+15.9 0.0 34 +15 +15 1019.1 967.6 +20.9
21 13.02 ЮВ 7 10 км 8/6 1200 м
[Sc Ac As]
+14.9 +2.0 42 +13 +13 1018.1 966.8
00 14.02 ЮВ 6 10 км 8/6 1200 м
[Sc Ac As]
+14.5 +3.0 46 +13 +13 1015.5 964.5
03 14.02 ЮВ 8 10 км 8/6 1200 м
[Sc Ac As]
+14.3 +3.0 47 +12 +12 1014.6 963.5
06 14.02 ЮВ 10 10 км 8/6 1200 м
[Sc Ac As]
+14.1 +4.0 51 +11 +11 1014.8 963.5 +13.7
09 14.02 Ю 5 10 км 8/6 1200 м
[Sc Ac As]
+17.4 +4.0 41 +17 +18 1013.2 962.1
12 14.02 Ю 10 8000 м пыльный позёмок 8/6 1200 м
[Sc Ac As]
+22.5 +2.0 26 +22 +22 комфорт 1009.2 958.7
15 14.02 Ю 5 10 км 4/0
[Ac trans]
+22.4 +4.0 30 +22 +22 комфорт 1008.9 958.4
18 14.02 Ю 2 10 км 4/0
[Ac trans]
+20.2 +4.0 34 +21 +21 комфорт 1009.9 959.2 +23.8
21 14.02 ЮВ 3 10 км 6/0
[Ac As]
+18.8 +5.0 40 +19 +19 1009.5 958.9
00 15.02 ЮВ 1 10 км ясно +18.7 +7.0 46 +20 +20 1008.8 958.7
03 15.02 З 2 10 км ясно +14.6 +6.0 56 +14 +14 1008.4 958.0
06 15.02 З 4 10 км ясно +17.2 +5.0 44 +17 +20 1010.5 960.0 +14.3
09 15.02 З 7 10 км ясно +22.5 -4.0 17 +21 +24 комфорт 1010.5 960.3
12 15.02 З 7 10 км ясно +23.1 -5.0 15 +21 +23 комфорт 1009.4 959.3
15 15.02 З 4 10 км ясно +21.5 -3.0 19 +21 +21 комфорт 1010.7 960.1

 

Местоположение метеостанции Рафха (Саудовская Аравия): широта 29.62 долгота 43.48 высота над уровнем моря 444 м.

В архиве по умолчанию представлена погода в Рафхе за последнюю неделю. Архивные данные за месяц целиком и за предыдущие месяцы, начиная с января 2011 года, Вы можете получить, выбрав интересующий диапазон дат из раскрывающегося списка и нажав кнопку "Ввод!".


*Определитесь, кто Вы:
робот инопланетянин человек

Внимание! Время в таблицах - всемирное. Для получения местного времени необходимо прибавить поправку, которая равна 3 ч.

Смотрите также архив погоды в соседних городах и на ближайших метеорологических станциях:

Погода в Эс-Самаве (Ирак) (254 км)
Погода в Араре (Саудовская Аравия) (267 км)
Погода в Хафар-аль-Батине (Саудовская Аравия) (274 км)
Погода в Наджафе (Ирак) (274 км)
Погода в Аль-Нухибе (Ирак) (293 км)
Погода в Аль-Кайсумахе (Саудовская Аравия) (296 км)
Погода в Дивании (Ирак) (299 км)
Погода в Доадми (Саудовская Аравия) (300 км)
Погода в Хаиле (Саудовская Аравия) (300 км)
Погода в Насирии (Ирак) (310 км)

Пояснения к столбцам:

Ветер - указаны скорость ветра в м/с - средняя за 10 мин, порывы в срок и между сроками (в фигурных скобках) и направление, откуда дует ветер: С - северный, СВ - северо-восточный, В - восточный, ЮВ - юго-восточный, Ю - южный, ЮЗ - юго-западный, З - западный, СЗ - северо-западный.
Видимость - горизонтальная дальность видимости в метрах или километрах. При видимости от 1 до 10 км при отсутствии осадков обычно наблюдается дымка, при ухудшении видимости до 1 км и менее - туман. В сухую погоду видимость может ухудшаться дымом, пылью или мглою.
Явления - указаны атмосферные явления, наблюдавшиеся в срок или в последний час перед сроком; фигурными скобками обозначены явления, наблюдавшиеся между сроками (за 1-3 часа до срока); квадратными скобками обозначены град или гололедные отложения с указанием их диаметра в мм.
Облачность - указаны через наклонную черту общая и нижняя облачность в баллах и высота нижней границы облаков в метрах; квадратными скобками обозначены формы облаков: Ci - перистые, Cs - перисто-слоистые, Cc - перисто-кучевые, Ac - высококучевые, As - высокослоистые, Sc - слоисто-кучевые, Ns - слоисто-дождевые, Cu - кучевые, Cb - кучево-дождевые. Подробнее классификацию облаков см. в Атласе облаков (PDF).
T - Температура воздуха - температура, измеренная на высоте 2 м над землей.
Td - Температура точки росы - температура, при понижении до которой содержащийся в воздухе водяной пар достигнет насыщения.
f - Относительная влажность воздуха - влажноcть воздуха, измеренная на высоте 2 м над землей.
Te - Эффективная температура - температура, которую ощущает одетый по сезону человек в тени. Характеристика душности погоды. При расчете учитывается влияние влажности воздуха и скорости ветра на теплоощущения человека.
Tes - Эффективная температура на солнце - температура, которую ощущает человек, с поправкой на солнечный нагрев. Характеристика знойности погоды. Зависит от высоты солнца над горизонтом, облачности и скорости ветра. Ночью, в пасмурную погоду, а также при ветре 12 м/с и более поправка равна нулю.
P - Атмосферное давление - приведенное к уровню моря атмосферное давление.
Po - Атмосферное давление - измеренное на уровне метеостанции атмосферное давление.
Tmin - Минимальная температура - минимум температуры воздуха на высоте 2 м над землей.
Tmax - Максимальная температура - максимум температуры воздуха на высоте 2 м над землей.
R - Количество осадков - Количество выпавших осадков за период времени, мм. При наведении курсора мыши на число - период времени, за который выпало указанное количество осадков.
R24 - Количество осадков - Количество выпавших осадков за 24 часа, мм.
S - Снежный покров - Высота снежного покрова, см. При наведении курсора мыши на число - состояние снежного покрова и степень покрытия местности в баллах.